Вернуться в каталог

STARLINK-32608

АктивенСвязьVLEO
NORAD 62124·PAYLOAD·🇺🇸 United States

Запущен Nov 27, 2024 с Cape Canaveral Space Force Station

Loading…

Ближайшие Пролёты (ближайшие 24 часа)

TLE

СвежийSource: CelesTrak SupGP

Эпоха: Sep 15, 2026, 02:53 UTC

1 62124C 24222L   26258.12062500  .00048826  00000+0  17685-2 0  2580
2 62124  43.0013 146.2580 0001335 272.8441   7.6750 15.27553666    16

Отслеживайте STARLINK-32608 в реальном времени с AllMySat

Download on the App Store